User: anonymous   Login
Location: Peebles
(55.6412°N, 3.1714°W)
Time: 15:59:42
(UTC+01:00)
Language:

NOAA 16 DEB - Orbit

View from above orbital plane
View from above orbital plane
View from above satellite
View from above satellite

Ground track
Ground track

The orbit data is extracted from the following two-line orbital elements,

1 41288U 00055GQ  22183.43409255  .00001599  00000-0  93909-3 0  9998
2 41288  98.9257 258.2567 0038614  60.9225 299.5804 14.09176598334979
Epoch (UTC): 02 July 2022 10:25:05
Eccentricity: 0.0038614
inclination: 98.9257°
perigee height: 834 km
apogee height: 890 km
right ascension of ascending node: 258.2567°
argument of perigee: 60.9225°
revolutions per day: 14.09176598
mean anomaly at epoch: 299.5804°
orbit number at epoch: 33497

The dashed part of the orbit path shows where the satellite is in the earth's shadow,  

DLR